星链-2576 (STARLINK-2576 )

导读 | 星芒AI

STARLINK-2576 是 SpaceX Starlink 卫星互联网项目中的第2576颗卫星,属于“星链”计划的第二代卫星群。该卫星于2023年发射,运行在约550公里高的近地轨道,旨在为全球用户提供高速、低延迟的宽带互联网服务。它采用先进推进系统和激光通信技术,提高网络稳定性和传输效率。作为星链星座的一部分,STARLINK-2576 有助于扩大覆盖范围,特别是在偏远和网络基础设施薄弱地区,推动全球互联网接入的普及。

基本信息
目录编号:
48400
目录名称:
STARLINK-2576
国际标识:
2021-038AZ
轨道中心:
EARTH
卫星名称:
星链-2576
卫星全名:
星链-2576 (STARLINK-2576 )
卫星状态:
在轨 (已飞行1689 天)
发射日期:
2021-05-04 UTC
国别 :
美国 (US)
星等 :
--
轨道信息
数据来源 国际轨道数据
星历时间: 2025-12-18T01:44:38+0800
13小时前
查看轨道信息
半长轴: 6925.35km
偏心率: 0.0001338
轨道倾角: 53.057°
近地点辐角 88.180°
升交点赤经 349.510°
平近点角 271.934°
近地点: 546.288km
远地点: 548.142km
周期: 95.592分钟
每日圈数: 15.063997
详细信息
固有亮度:
5
最大亮度:
2.5
卫星平台:
Starlink V1.0
覆盖范围:
全球
运营商:
太空探索技术公司
运营商所在国:
美国
制造商(研发单位):
太空探索技术公司
制造商所在国:
美国
使用方式:
暂无
卫星简介
星链(Starlink)计划是由太空探索技术公司(SpaceX)提出的一个巨型低轨卫星互联网星座项目,计划在2019年至2024年间在太空搭建由约1.2万颗卫星组成的“星链”网络,其中1584颗将部署在地球上空550千米处的近地轨道,并从2020年开始工作。该卫星仍在工作。
2D轨道图
3D轨道图
轨道高度分析图
轨道倾角分析图
轨道综合分析图
查看轨道综合分析图